星链-35374(STARLINK-35374)

导读 | 豆包AI

STARLINK-35374是美国SpaceX公司星链(Starlink)卫星互联网项目的卫星,于2025年10月26日发射。作为星链全球覆盖阶段部署的新一代低轨卫星,它延续了星链技术迭代成果,配备激光星间链路,可支撑高速低延迟通信服务,助力星链实现全球偏远地区互联网覆盖,进一步扩充星座规模,推动星链手机直连等商用服务落地,同时也引发了太空轨道安全等方面的争议。

基本信息
目录编号:
66194
目录名称:
STARLINK-35374
国际标识:
2025-243T
轨道中心:
EARTH
卫星名称:
星链-35374
卫星全名:
星链-35374(STARLINK-35374)
卫星状态:
在轨 (已飞行160 天)
发射日期:
2025-10-26 UTC
国别 :
美国 (US)
星等 :
--
轨道信息
数据来源 国际轨道数据
星历时间: 2026-04-03T16:52:22+0800
23小时前
查看轨道信息
半长轴: 6853.245km
偏心率: 0.0001357
轨道倾角: 53.160°
近地点辐角 69.855°
升交点赤经 130.529°
平近点角 290.260°
近地点: 474.178km
远地点: 476.038km
周期: 94.103分钟
每日圈数: 15.30236
详细信息
固有亮度:
5
最大亮度:
2.5
卫星平台:
Starlink V1.0
覆盖范围:
全球
运营商:
太空探索技术公司
运营商所在国:
美国
制造商(研发单位):
太空探索技术公司
制造商所在国:
美国
使用方式:
暂无
卫星简介
Starlink 计划是 SpaceX 推出的全球卫星互联网项目,通过发射低轨道卫星,为全球尤其是偏远地区提供高速、低延迟的互联网服务。自 2019 年起,Starlink 已部署数千颗卫星,旨在缩小全球数字鸿沟,推动互联网普及。该项目还为军事、航空等行业提供通信支持,带来广泛经济效益。
2D轨道图
3D轨道图
轨道高度分析图
轨道倾角分析图
轨道综合分析图
查看轨道综合分析图